Time,TemperatureF,DewpointF,PressureIn,WindDirection,WindDirectionDegrees,WindSpeedMPH,WindSpeedGustMPH,Humidity,HourlyPrecipIn,Conditions,Clouds,dailyrainin,SoftwareType,DateUTC
2013-09-17 00:16:00,43.9,41.0,30.23,ENE,73,2.0,-999.0,88,-99.99,,,0.00,weatherlink.com 1.10,2013-09-17 04:16:00,
2013-09-17 00:31:00,44.1,40.0,30.23,ENE,74,5.0,-999.0,85,-99.99,,,0.00,weatherlink.com 1.10,2013-09-17 04:31:00,
2013-09-17 00:46:00,44.2,40.0,30.24,NE,53,7.0,-999.0,85,-99.99,,,0.00,weatherlink.com 1.10,2013-09-17 04:46:00,
2013-09-17 01:01:00,44.5,40.0,30.24,ENE,65,6.0,-999.0,84,-99.99,,,0.00,weatherlink.com 1.10,2013-09-17 05:01:00,
2013-09-17 01:16:00,45.2,42.0,30.24,ENE,76,10.0,-999.0,88,-99.99,,,0.00,weatherlink.com 1.10,2013-09-17 05:16:00,
2013-09-17 01:31:00,45.0,43.0,30.24,NE,45,5.0,-999.0,92,-99.99,,,0.00,weatherlink.com 1.10,2013-09-17 05:31:00,
2013-09-17 01:46:00,44.4,42.0,30.24,NE,52,6.0,-999.0,91,-99.99,,,0.00,weatherlink.com 1.10,2013-09-17 05:46:00,
2013-09-17 02:01:00,44.2,41.0,30.24,ENE,65,7.0,-999.0,88,-99.99,,,0.00,weatherlink.com 1.10,2013-09-17 06:01:00,
2013-09-17 02:17:00,44.1,41.0,30.25,NE,50,2.0,-999.0,87,-99.99,,,0.00,weatherlink.com 1.10,2013-09-17 06:17:00,
2013-09-17 02:32:00,44.0,40.0,30.25,ENE,58,7.0,-999.0,86,-99.99,,,0.00,weatherlink.com 1.10,2013-09-17 06:32:00,
2013-09-17 02:47:00,44.2,40.0,30.25,NE,55,4.0,-999.0,85,-99.99,,,0.01,weatherlink.com 1.10,2013-09-17 06:47:00,
2013-09-17 03:02:00,44.6,40.0,30.25,ENE,65,4.0,-999.0,85,-99.99,,,0.01,weatherlink.com 1.10,2013-09-17 07:02:00,
2013-09-17 03:17:00,44.4,40.0,30.25,ENE,67,7.0,-999.0,85,-99.99,,,0.01,weatherlink.com 1.10,2013-09-17 07:17:00,
2013-09-17 03:32:00,44.6,40.0,30.25,ENE,76,11.0,-999.0,84,-99.99,,,0.01,weatherlink.com 1.10,2013-09-17 07:32:00,
2013-09-17 03:47:00,44.7,41.0,30.25,ENE,69,8.0,-999.0,87,-99.99,,,0.01,weatherlink.com 1.10,2013-09-17 07:47:00,
2013-09-17 04:02:00,45.0,42.0,30.25,ENE,59,10.0,-999.0,89,-99.99,,,0.01,weatherlink.com 1.10,2013-09-17 08:02:00,
2013-09-17 04:17:00,44.9,43.0,30.25,ENE,75,10.0,-999.0,92,-99.99,,,0.01,weatherlink.com 1.10,2013-09-17 08:17:00,
2013-09-17 04:32:00,44.7,42.0,30.26,ENE,60,8.0,-999.0,91,-99.99,,,0.01,weatherlink.com 1.10,2013-09-17 08:32:00,
2013-09-17 04:47:00,44.7,41.0,30.26,ENE,65,8.0,-999.0,87,-99.99,,,0.01,weatherlink.com 1.10,2013-09-17 08:47:00,
2013-09-17 05:02:00,44.5,41.0,30.26,East,88,10.0,-999.0,86,-99.99,,,0.01,weatherlink.com 1.10,2013-09-17 09:02:00,
2013-09-17 05:17:00,44.2,40.0,30.26,East,80,8.0,-999.0,85,-99.99,,,0.01,weatherlink.com 1.10,2013-09-17 09:17:00,
2013-09-17 05:32:00,43.8,40.0,30.26,ENE,75,9.0,-999.0,85,-99.99,,,0.01,weatherlink.com 1.10,2013-09-17 09:32:00,
2013-09-17 05:47:00,43.6,39.0,30.27,East,80,8.0,-999.0,85,-99.99,,,0.01,weatherlink.com 1.10,2013-09-17 09:47:00,
2013-09-17 06:02:00,43.4,39.0,30.28,ENE,69,5.0,-999.0,85,-99.99,,,0.01,weatherlink.com 1.10,2013-09-17 10:02:00,
2013-09-17 06:17:00,43.4,39.0,30.29,ENE,72,7.0,-999.0,85,-99.99,,,0.01,weatherlink.com 1.10,2013-09-17 10:17:00,
2013-09-17 06:32:00,43.5,39.0,30.29,ENE,70,5.0,-999.0,85,-99.99,,,0.01,weatherlink.com 1.10,2013-09-17 10:32:00,
2013-09-17 06:47:00,43.5,40.0,30.29,ENE,77,7.0,-999.0,88,-99.99,,,0.01,weatherlink.com 1.10,2013-09-17 10:47:00,
2013-09-17 07:02:00,43.5,41.0,30.30,ENE,74,9.0,-999.0,91,-99.99,,,0.01,weatherlink.com 1.10,2013-09-17 11:02:00,
2013-09-17 07:17:00,43.8,41.0,30.30,ENE,67,5.0,-999.0,91,-99.99,,,0.01,weatherlink.com 1.10,2013-09-17 11:17:00,
2013-09-17 07:32:00,44.3,42.0,30.31,ENE,77,2.0,-999.0,91,-99.99,,,0.01,weatherlink.com 1.10,2013-09-17 11:32:00,
2013-09-17 07:47:00,45.0,43.0,30.32,ENE,69,5.0,-999.0,93,-99.99,,,0.01,weatherlink.com 1.10,2013-09-17 11:47:00,
2013-09-17 08:02:00,45.2,44.0,30.32,ENE,78,4.0,-999.0,94,-99.99,,,0.01,weatherlink.com 1.10,2013-09-17 12:02:00,
2013-09-17 08:17:00,45.6,44.0,30.32,ENE,71,4.0,-999.0,94,-99.99,,,0.01,weatherlink.com 1.10,2013-09-17 12:17:00,
2013-09-17 08:32:00,46.3,45.0,30.32,East,81,2.0,-999.0,94,-99.99,,,0.01,weatherlink.com 1.10,2013-09-17 12:32:00,
2013-09-17 08:47:00,47.2,46.0,30.33,ENE,69,5.0,-999.0,94,-99.99,,,0.01,weatherlink.com 1.10,2013-09-17 12:47:00,
2013-09-17 09:02:00,48.2,46.0,30.33,ENE,66,5.0,-999.0,93,-99.99,,,0.01,weatherlink.com 1.10,2013-09-17 13:02:00,
2013-09-17 09:17:00,48.8,46.0,30.34,ENE,75,4.0,-999.0,90,-99.99,,,0.01,weatherlink.com 1.10,2013-09-17 13:17:00,
2013-09-17 09:32:00,49.6,47.0,30.34,NE,45,1.0,-999.0,89,-99.99,,,0.01,weatherlink.com 1.10,2013-09-17 13:32:00,
2013-09-17 09:47:00,50.4,47.0,30.34,NE,54,2.0,-999.0,89,-99.99,,,0.01,weatherlink.com 1.10,2013-09-17 13:47:00,
2013-09-17 10:02:00,51.3,47.0,30.34,East,87,2.0,-999.0,86,-99.99,,,0.01,weatherlink.com 1.10,2013-09-17 14:02:00,
2013-09-17 10:18:00,51.4,47.0,30.35,NNE,29,4.0,-999.0,84,-99.99,,,0.01,weatherlink.com 1.10,2013-09-17 14:18:00,
2013-09-17 10:33:00,51.4,46.0,30.34,ENE,61,4.0,-999.0,82,-99.99,,,0.01,weatherlink.com 1.10,2013-09-17 14:33:00,
2013-09-17 10:48:00,51.6,47.0,30.35,ENE,65,6.0,-999.0,84,-99.99,,,0.01,weatherlink.com 1.10,2013-09-17 14:48:00,
2013-09-17 11:03:00,51.9,47.0,30.35,East,86,6.0,-999.0,84,-99.99,,,0.01,weatherlink.com 1.10,2013-09-17 15:03:00,
2013-09-17 11:18:00,53.0,47.0,30.35,NE,53,4.0,-999.0,81,-99.99,,,0.01,weatherlink.com 1.10,2013-09-17 15:18:00,
2013-09-17 11:33:00,52.5,47.0,30.35,ENE,65,9.0,-999.0,81,-99.99,,,0.01,weatherlink.com 1.10,2013-09-17 15:33:00,
2013-09-17 11:48:00,52.3,46.0,30.35,NE,52,5.0,-999.0,80,-99.99,,,0.01,weatherlink.com 1.10,2013-09-17 15:48:00,
2013-09-17 12:03:00,52.5,46.0,30.35,ENE,76,7.0,-999.0,78,-99.99,,,0.01,weatherlink.com 1.10,2013-09-17 16:03:00,
2013-09-17 12:18:00,53.2,45.0,30.34,ENE,67,7.0,-999.0,75,-99.99,,,0.01,weatherlink.com 1.10,2013-09-17 16:18:00,
2013-09-17 12:33:00,54.7,46.0,30.35,ESE,113,5.0,-999.0,73,-99.99,,,0.01,weatherlink.com 1.10,2013-09-17 16:33:00,
2013-09-17 12:48:00,55.6,48.0,30.34,ENE,72,4.0,-999.0,75,-99.99,,,0.01,weatherlink.com 1.10,2013-09-17 16:48:00,
2013-09-17 13:03:00,56.6,48.0,30.34,SE,146,0.0,-999.0,72,-99.99,,,0.01,weatherlink.com 1.10,2013-09-17 17:03:00,
2013-09-17 13:18:00,55.7,47.0,30.34,ENE,78,9.0,-999.0,72,-99.99,,,0.01,weatherlink.com 1.10,2013-09-17 17:18:00,
2013-09-17 13:33:00,56.5,48.0,30.33,ESE,108,5.0,-999.0,73,-99.99,,,0.01,weatherlink.com 1.10,2013-09-17 17:33:00,
2013-09-17 13:48:00,57.8,48.0,30.32,SSE,155,4.0,-999.0,71,-99.99,,,0.01,weatherlink.com 1.10,2013-09-17 17:48:00,
2013-09-17 14:03:00,57.6,49.0,30.32,SE,135,5.0,-999.0,73,-99.99,,,0.01,weatherlink.com 1.10,2013-09-17 18:03:00,
2013-09-17 14:18:00,57.2,47.0,30.32,ESE,119,1.0,-999.0,69,-99.99,,,0.01,weatherlink.com 1.10,2013-09-17 18:18:00,
2013-09-17 14:33:00,57.1,47.0,30.31,East,92,7.0,-999.0,68,-99.99,,,0.01,weatherlink.com 1.10,2013-09-17 18:33:00,
2013-09-17 14:48:00,57.5,46.0,30.30,SSE,147,1.0,-999.0,66,-99.99,,,0.01,weatherlink.com 1.10,2013-09-17 18:48:00,
2013-09-17 15:03:00,57.4,47.0,30.30,ENE,65,3.0,-999.0,69,-99.99,,,0.01,weatherlink.com 1.10,2013-09-17 19:03:00,
2013-09-17 15:18:00,56.6,48.0,30.30,ENE,65,5.0,-999.0,73,-99.99,,,0.01,weatherlink.com 1.10,2013-09-17 19:18:00,
2013-09-17 15:33:00,55.2,48.0,30.30,East,82,6.0,-999.0,76,-99.99,,,0.01,weatherlink.com 1.10,2013-09-17 19:33:00,
2013-09-17 15:48:00,55.4,48.0,30.29,ENE,61,5.0,-999.0,76,-99.99,,,0.01,weatherlink.com 1.10,2013-09-17 19:48:00,
2013-09-17 16:03:00,55.1,47.0,30.29,ENE,67,2.0,-999.0,75,-99.99,,,0.01,weatherlink.com 1.10,2013-09-17 20:03:00,
2013-09-17 16:18:00,56.0,48.0,30.29,ENE,76,8.0,-999.0,74,-99.99,,,0.01,weatherlink.com 1.10,2013-09-17 20:18:00,
2013-09-17 16:33:00,55.3,48.0,30.28,SSE,157,4.0,-999.0,75,-99.99,,,0.01,weatherlink.com 1.10,2013-09-17 20:33:00,
2013-09-17 16:48:00,57.2,47.0,30.28,East,80,6.0,-999.0,70,-99.99,,,0.01,weatherlink.com 1.10,2013-09-17 20:48:00,
2013-09-17 17:03:00,57.3,48.0,30.28,SSE,160,0.0,-999.0,71,-99.99,,,0.01,weatherlink.com 1.10,2013-09-17 21:03:00,
2013-09-17 17:18:00,56.8,47.0,30.28,South,186,4.0,-999.0,71,-99.99,,,0.01,weatherlink.com 1.10,2013-09-17 21:18:00,
2013-09-17 17:33:00,57.4,47.0,30.27,South,182,7.0,-999.0,69,-99.99,,,0.01,weatherlink.com 1.10,2013-09-17 21:33:00,
2013-09-17 17:48:00,56.6,46.0,30.27,South,180,4.0,-999.0,69,-99.99,,,0.01,weatherlink.com 1.10,2013-09-17 21:48:00,
2013-09-17 18:03:00,55.9,46.0,30.27,South,182,4.0,-999.0,70,-99.99,,,0.01,weatherlink.com 1.10,2013-09-17 22:03:00,
2013-09-17 18:18:00,54.8,46.0,30.27,SSE,150,4.0,-999.0,71,-99.99,,,0.01,weatherlink.com 1.10,2013-09-17 22:18:00,
2013-09-17 18:33:00,53.6,45.0,30.27,South,182,0.0,-999.0,73,-99.99,,,0.01,weatherlink.com 1.10,2013-09-17 22:33:00,
2013-09-17 18:48:00,52.6,44.0,30.26,SSE,150,5.0,-999.0,73,-99.99,,,0.01,weatherlink.com 1.10,2013-09-17 22:48:00,
2013-09-17 19:03:00,51.3,43.0,30.26,SSE,159,3.0,-999.0,74,-99.99,,,0.01,weatherlink.com 1.10,2013-09-17 23:03:00,
2013-09-17 19:18:00,50.4,43.0,30.25,SSE,159,3.0,-999.0,77,-99.99,,,0.01,weatherlink.com 1.10,2013-09-17 23:18:00,
2013-09-17 19:33:00,49.7,44.0,30.26,South,175,0.0,-999.0,80,-99.99,,,0.01,weatherlink.com 1.10,2013-09-17 23:33:00,
2013-09-17 19:48:00,49.3,44.0,30.26,SE,138,2.0,-999.0,82,-99.99,,,0.01,weatherlink.com 1.10,2013-09-17 23:48:00,
2013-09-17 20:03:00,49.1,45.0,30.26,South,174,2.0,-999.0,84,-99.99,,,0.01,weatherlink.com 1.10,2013-09-18 00:03:00,
2013-09-17 20:18:00,48.8,44.0,30.26,SE,144,2.0,-999.0,84,-99.99,,,0.01,weatherlink.com 1.10,2013-09-18 00:18:00,
2013-09-17 20:33:00,48.1,44.0,30.26,SE,132,2.0,-999.0,85,-99.99,,,0.01,weatherlink.com 1.10,2013-09-18 00:33:00,
2013-09-17 20:48:00,47.6,44.0,30.26,ESE,104,4.0,-999.0,87,-99.99,,,0.01,weatherlink.com 1.10,2013-09-18 00:48:00,
2013-09-17 21:03:00,46.9,44.0,30.27,East,80,1.0,-999.0,89,-99.99,,,0.01,weatherlink.com 1.10,2013-09-18 01:03:00,
2013-09-17 21:18:00,46.4,44.0,30.27,East,96,0.0,-999.0,91,-99.99,,,0.01,weatherlink.com 1.10,2013-09-18 01:18:00,
2013-09-17 21:33:00,46.3,44.0,30.27,East,99,1.0,-999.0,93,-99.99,,,0.01,weatherlink.com 1.10,2013-09-18 01:33:00,
2013-09-17 21:48:00,46.4,45.0,30.27,SSE,163,2.0,-999.0,94,-99.99,,,0.01,weatherlink.com 1.10,2013-09-18 01:48:00,
2013-09-17 22:03:00,46.5,45.0,30.26,SSE,148,1.0,-999.0,94,-99.99,,,0.01,weatherlink.com 1.10,2013-09-18 02:03:00,
2013-09-17 22:18:00,46.3,45.0,30.26,SE,135,1.0,-999.0,94,-99.99,,,0.01,weatherlink.com 1.10,2013-09-18 02:18:00,
2013-09-17 22:48:00,45.8,44.0,30.26,East,91,5.0,-999.0,94,-99.99,,,0.01,weatherlink.com 1.10,2013-09-18 02:48:00,
2013-09-17 23:03:00,45.7,44.0,30.26,SE,145,4.0,-999.0,94,-99.99,,,0.01,weatherlink.com 1.10,2013-09-18 03:03:00,
2013-09-17 23:18:00,45.8,44.0,30.26,ENE,69,4.0,-999.0,94,-99.99,,,0.01,weatherlink.com 1.10,2013-09-18 03:18:00,
2013-09-17 23:33:00,45.7,44.0,30.26,NE,55,4.0,-999.0,94,-99.99,,,0.01,weatherlink.com 1.10,2013-09-18 03:33:00,
2013-09-17 23:48:00,45.8,44.0,30.26,NE,39,2.0,-999.0,94,-99.99,,,0.01,weatherlink.com 1.10,2013-09-18 03:48:00,